FW7112 Weather Reports


time (UTC)temp
F
wind
direction
speed
knots
gust
knots
rain 1hr
in
rain 24hr
in
rain mn
in
humidity
%
barometer
mb
20260507130559 54 0 0.0 3.5 0.00 0.34 0.11 83 1011.9
20260507130109 54 0 0.9 6.1 0.00 0.34 0.11 79 1011.7
20260507125559 54 0 0.9 6.1 0.00 0.36 0.11 75 1011.6
20260507125058 54 0 0.0 2.6 0.00 0.36 0.11 81 1011.8
20260507124608 54 0 0.0 0.9 0.00 0.36 0.11 86 1011.8
20260507124059 54 75 0.0 2.6 0.00 0.36 0.11 84 1011.6
20260507123559 54 0 0.9 2.6 0.00 0.36 0.11 82 1011.6
20260507123058 54 96 0.0 1.7 0.00 0.36 0.11 79 1011.5
20260507122558 54 0 0.0 2.6 0.00 0.36 0.11 83 1011.6
20260507122100 54 0 0.0 2.6 0.00 0.36 0.11 83 1011.7
20260507121600 54 0 0.0 3.5 0.00 0.36 0.11 83 1011.6
20260507121101 54 0 0.0 3.5 0.00 0.36 0.11 86 1011.5
20260507120600 54 88 0.0 3.5 0.00 0.36 0.11 89 1011.6
20260507120057 54 0 0.0 3.5 0.00 0.36 0.11 87 1011.5
20260507115559 54 0 0.0 1.7 0.00 0.36 0.11 89 1011.7
20260507115100 54 63 0.0 0.9 0.00 0.36 0.11 90 1011.6
20260507114600 54 0 0.0 0.9 0.00 0.36 0.11 91 1011.5
20260507114059 54 0 0.0 0.0 0.00 0.36 0.11 91 1011.5
20260507113601 54 0 0.0 0.0 0.00 0.36 0.11 91 1011.1
20260507113059 54 0 0.0 0.0 0.00 0.36 0.11 92 1011.3
20260507112559 54 0 0.0 1.7 0.00 0.36 0.11 91 1011.3
20260507112057 54 0 0.0 1.7 0.00 0.36 0.11 92 1011.2
20260507111559 54 0 0.0 1.7 0.00 0.36 0.11 92 1011.2
20260507111058 54 0 0.0 1.7 0.00 0.36 0.11 92 1011.3
20260507110600 54 111 0.0 0.9 0.00 0.36 0.11 92 1011.3
20260507110056 54 0 0.0 0.9 0.00 0.36 0.11 93 1011.2
20260507105559 54 111 0.0 0.9 0.00 0.36 0.11 92 1011.2
20260507105059 54 0 0.0 0.0 0.00 0.36 0.11 92 1011.2
20260507104613 54 0 0.0 0.0 0.00 0.36 0.11 92 1011.1
20260507104059 54 0 0.0 0.0 0.00 0.36 0.11 92 1011.1
20260507103601 54 0 0.0 0.0 0.00 0.36 0.11 92 1011.0
20260507103118 54 0 0.0 0.0 0.00 0.36 0.11 92 1011.1
20260507102600 54 0 0.0 0.0 0.00 0.36 0.11 92 1011.0
20260507102100 54 0 0.0 0.0 0.00 0.36 0.11 92 1010.9
20260507101559 54 0 0.0 0.0 0.00 0.36 0.11 92 1011.0
20260507101059 54 0 0.0 0.0 0.00 0.36 0.11 92 1011.0
20260507100600 54 0 0.0 0.0 0.00 0.36 0.11 92 1011.0
20260507100059 54 0 0.0 0.9 0.00 0.36 0.11 92 1010.8
20260507095602 54 0 0.0 0.9 0.00 0.36 0.11 92 1010.7
20260507095059 54 0 0.0 0.0 0.00 0.36 0.11 92 1010.7
20260507094558 54 0 0.0 0.0 0.00 0.36 0.11 92 1010.9
20260507094059 54 0 0.0 0.0 0.00 0.36 0.11 92 1010.7
20260507093559 54 0 0.0 0.9 0.00 0.36 0.11 92 1010.8
20260507093101 54 0 0.0 0.9 0.00 0.36 0.11 92 1010.8
20260507092603 54 111 0.0 0.9 0.00 0.36 0.11 92 1010.8
20260507092059 54 0 0.0 0.9 0.00 0.36 0.11 92 1010.6
20260507091600 54 0 0.0 0.9 0.00 0.36 0.11 92 1010.2
20260507091059 54 0 0.0 0.9 0.00 0.36 0.11 92 1010.4
20260507090558 54 0 0.0 0.9 0.00 0.36 0.11 92 1010.6
20260507090059 54 0 0.0 0.0 0.00 0.36 0.11 92 1010.6
20260507085601 54 0 0.0 0.9 0.00 0.36 0.11 92 1010.5
20260507085101 54 0 0.0 0.9 0.00 0.36 0.11 92 1010.4
20260507084600 54 0 0.0 0.9 0.00 0.36 0.11 92 1010.5
20260507084100 54 0 0.0 0.9 0.00 0.36 0.11 91 1010.3
20260507083600 54 0 0.0 0.9 0.00 0.36 0.11 91 1010.1
20260507083100 54 0 0.0 1.7 0.00 0.36 0.11 91 1010.5
20260507082559 54 0 0.0 1.7 0.00 0.36 0.11 91 1010.4
20260507082101 54 0 0.9 1.7 0.00 0.36 0.11 91 1010.3
20260507081600 54 0 0.0 0.9 0.00 0.36 0.11 91 1010.4
20260507081059 54 0 0.0 1.7 0.00 0.36 0.11 91 1010.3
20260507080602 54 0 0.0 1.7 0.00 0.36 0.11 91 1010.0
20260507075559 55 111 0.0 1.7 0.00 0.36 0.11 91 1009.6
20260507075059 55 0 0.0 1.7 0.00 0.36 0.11 91 1009.9
20260507074601 55 0 0.0 1.7 0.00 0.36 0.11 91 1009.9
20260507074059 55 0 0.0 1.7 0.00 0.36 0.11 91 1010.0
20260507073559 55 0 0.0 1.7 0.00 0.36 0.11 91 1009.9
20260507073104 55 0 0.0 3.5 0.00 0.36 0.11 91 1009.7
20260507072559 55 110 0.0 3.5 0.00 0.36 0.11 90 1009.6
20260507072056 55 0 0.0 1.7 0.00 0.36 0.11 91 1009.6
20260507071558 55 0 0.0 1.7 0.00 0.36 0.11 90 1009.7
20260507071056 55 0 0.0 1.7 0.01 0.36 0.11 90 1009.6
20260507070557 55 0 0.0 2.6 0.01 0.36 0.11 89 1009.5
20260507065558 55 0 0.0 2.6 0.01 0.36 0.11 89 1009.7
20260507065058 55 139 0.0 2.6 0.01 0.36 0.11 89 1009.7
20260507064558 55 139 0.0 2.6 0.01 0.36 0.11 89 1009.5
20260507064059 55 140 0.0 2.6 0.01 0.36 0.11 90 1009.7
20260507063558 55 0 0.0 2.6 0.01 0.36 0.11 89 1009.5
20260507063058 56 140 0.0 3.5 0.01 0.36 0.11 89 1009.4
20260507062557 56 0 0.0 3.5 0.02 0.36 0.11 88 1009.7
20260507062100 56 133 0.0 2.6 0.02 0.36 0.11 90 1009.9
20260507061603 56 0 0.9 3.5 0.03 0.36 0.11 89 1009.7
20260507061059 56 337 0.9 6.1 0.02 0.35 0.10 88 1009.6
20260507060600 56 175 0.9 6.1 0.02 0.35 0.10 89 1009.2
20260507060103 56 0 0.9 6.1 0.03 0.35 0.10 89 1009.6
20260507055556 57 0 0.0 1.7 0.04 0.35 0.10 89 1009.3
20260507055058 57 140 0.0 4.3 0.04 0.35 0.10 89 1009.2
20260507054607 57 0 0.0 4.3 0.04 0.35 0.10 89 1009.2
20260507054058 57 0 0.0 2.6 0.05 0.35 0.10 89 1009.3
20260507053559 57 0 0.0 2.6 0.06 0.35 0.10 89 1009.9
20260507053059 57 231 0.0 1.7 0.06 0.35 0.10 89 1009.9
20260507052603 57 0 0.0 2.6 0.06 0.34 0.09 89 1009.6
20260507052058 58 0 0.0 2.6 0.07 0.34 0.09 89 1009.3
20260507051601 58 0 0.9 2.6 0.08 0.33 0.08 89 1009.3
20260507051056 58 159 0.9 2.6 0.08 0.33 0.08 89 1009.4
20260507050557 58 0 0.0 1.7 0.08 0.33 0.08 89 1009.8
20260507050059 58 0 0.0 3.5 0.07 0.32 0.07 89 1009.9
20260507045559 58 158 0.0 3.5 0.06 0.31 0.06 89 1009.6
20260507045058 58 0 0.0 2.6 0.06 0.31 0.06 89 1009.6
20260507044606 59 176 0.0 1.7 0.06 0.31 0.06 88 1009.4
20260507044056 59 0 0.0 1.7 0.05 0.30 0.05 88 1009.8
20260507043644 59 0 0.0 5.2 0.04 0.29 0.04 86 1010.0
20260507043105 60 0 0.9 5.2 0.04 0.29 0.04 85 1009.7
20260507042600 60 129 0.9 3.5 0.03 0.28 0.03 84 1009.8
20260507042059 61 0 0.0 2.6 0.02 0.27 0.02 83 1010.3
20260507041606 61 126 0.0 2.6 0.00 0.25 0.00 80 1009.5
20260507041059 62 124 0.0 5.2 0.00 0.25 0.00 78 1009.6
20260507040559 62 0 0.9 5.2 0.00 0.25 0.00 76 1009.7
20260507040058 62 148 0.9 4.3 0.00 0.25 0.00 75 1009.5
20260507035559 62 0 0.9 5.2 0.00 0.25 0.25 75 1009.4
20260507035101 63 156 1.7 5.2 0.00 0.25 0.25 73 1009.3
20260507034613 63 134 0.0 7.0 0.00 0.25 0.25 72 1009.2
20260507034100 64 138 1.7 7.0 0.00 0.25 0.25 72 1009.2
20260507033600 64 239 1.7 7.0 0.00 0.25 0.25 71 1009.4
20260507033101 64 313 0.9 4.3 0.00 0.25 0.25 74 1009.4
20260507032600 64 87 0.0 3.5 0.00 0.25 0.25 75 1009.3
20260507032059 64 103 0.0 3.5 0.00 0.25 0.25 76 1009.1
20260507031559 65 0 0.0 4.3 0.00 0.25 0.25 78 1008.9
20260507031101 65 202 0.0 5.2 0.00 0.25 0.25 77 1008.9
20260507030559 65 123 0.9 5.2 0.00 0.25 0.25 77 1008.7
20260507030104 65 128 0.0 4.3 0.00 0.25 0.25 78 1008.3
20260507025559 65 0 0.9 4.3 0.00 0.25 0.25 78 1008.6
20260507025059 65 330 0.0 4.3 0.00 0.25 0.25 81 1008.8
20260507024600 65 0 0.0 5.2 0.00 0.25 0.25 81 1008.9
20260507024059 65 143 0.9 5.2 0.00 0.25 0.25 83 1008.7
20260507023600 65 0 0.0 5.2 0.00 0.25 0.25 85 1008.6
20260507023100 65 0 0.0 1.7 0.00 0.25 0.25 88 1008.6
20260507022559 65 0 0.0 1.7 0.00 0.25 0.25 87 1008.5
20260507022100 65 0 0.0 2.6 0.00 0.25 0.25 88 1008.3
20260507021600 65 0 0.0 2.6 0.00 0.25 0.25 88 1008.1
20260507021100 65 314 0.0 1.7 0.00 0.25 0.25 89 1007.9
20260507020600 65 0 0.0 0.0 0.00 0.25 0.25 89 1007.9
20260507020104 65 0 0.0 0.0 0.00 0.25 0.25 88 1008.0
20260507015559 65 0 0.0 0.0 0.00 0.25 0.25 88 1008.5
20260507015059 65 0 0.0 0.0 0.00 0.25 0.25 88 1008.4
20260507014600 65 0 0.0 0.0 0.00 0.25 0.25 88 1008.2
20260507014101 65 0 0.0 0.0 0.00 0.25 0.25 87 1008.2
20260507013559 65 0 0.0 0.0 0.00 0.25 0.25 87 1008.2
20260507013102 65 0 0.0 0.0 0.00 0.25 0.25 87 1008.1
20260507012559 65 0 0.0 0.0 0.00 0.25 0.25 87 1008.1
20260507012059 65 0 0.0 0.0 0.00 0.25 0.25 87 1008.2
20260507011559 65 0 0.0 0.0 0.00 0.25 0.25 87 1008.3
20260507011100 65 0 0.0 0.0 0.00 0.25 0.25 87 1008.6
20260507010559 65 0 0.0 0.0 0.00 0.25 0.25 86 1008.5
20260507010059 66 0 0.0 0.0 0.00 0.25 0.25 86 1008.6
20260507005600 66 0 0.0 0.0 0.00 0.25 0.25 86 1008.5
20260507005059 66 0 0.0 0.0 0.00 0.25 0.25 85 1008.4
20260507004601 66 0 0.0 0.0 0.00 0.25 0.25 84 1008.3
20260507004100 66 0 0.0 0.0 0.00 0.25 0.25 84 1008.2
20260507003602 66 0 0.0 0.0 0.00 0.25 0.25 84 1008.3
20260507003100 66 0 0.0 0.0 0.00 0.25 0.25 84 1008.2
20260507002559 67 0 0.0 0.0 0.00 0.25 0.25 84 1008.1
20260507002059 67 0 0.0 0.9 0.00 0.25 0.25 83 1008.1
20260507001602 67 0 0.0 0.9 0.00 0.25 0.25 83 1008.2
20260507001059 67 342 0.0 0.9 0.00 0.25 0.25 82 1007.9
20260507000559 67 0 0.0 0.9 0.00 0.25 0.25 81 1007.9
20260507000059 68 0 0.0 0.9 0.00 0.25 0.25 81 1007.8
20260506235601 68 0 0.0 0.9 0.00 0.25 0.25 80 1007.8
20260506235059 68 0 0.0 0.9 0.00 0.25 0.25 80 1007.7
20260506234603 68 0 0.0 0.0 0.00 0.25 0.25 80 1007.7
20260506234100 68 0 0.0 0.9 0.00 0.25 0.25 79 1007.6
20260506233601 68 0 0.0 0.9 0.00 0.25 0.25 79 1007.5
20260506233102 68 343 0.0 0.9 0.00 0.25 0.25 79 1007.4
20260506232559 68 0 0.0 0.9 0.00 0.25 0.25 79 1007.5
20260506232059 68 0 0.0 1.7 0.00 0.25 0.25 78 1007.5
20260506231558 69 0 0.0 1.7 0.00 0.25 0.25 77 1007.4
20260506231100 69 0 0.0 1.7 0.00 0.25 0.25 77 1007.5
20260506230559 69 0 0.0 1.7 0.00 0.25 0.25 77 1007.4
20260506230059 69 0 0.0 1.7 0.00 0.25 0.25 77 1007.4
20260506225559 69 338 0.0 1.7 0.00 0.25 0.25 76 1007.4
20260506225100 69 0 0.0 1.7 0.00 0.25 0.25 77 1007.4
20260506224609 69 0 0.0 3.5 0.00 0.25 0.25 77 1007.3
20260506224058 69 0 0.0 3.5 0.00 0.25 0.25 77 1007.2
20260506223559 69 106 0.0 4.3 0.00 0.25 0.25 77 1007.2
20260506223103 69 360 0.0 4.3 0.00 0.25 0.25 77 1007.3
20260506222559 69 130 0.0 3.5 0.00 0.25 0.25 77 1007.3
20260506222100 69 130 0.9 3.5 0.00 0.25 0.25 77 1007.3
20260506221558 69 38 0.0 4.3 0.00 0.25 0.25 77 1007.4
20260506221100 69 5 0.9 4.3 0.00 0.25 0.25 77 1007.4
20260506220600 69 135 0.9 4.3 0.00 0.25 0.25 77 1007.4
20260506215559 69 318 0.9 7.8 0.00 0.25 0.25 76 1007.5
20260506215100 69 0 1.7 7.8 0.00 0.25 0.25 76 1007.4
20260506214610 68 0 0.9 2.6 0.00 0.25 0.25 78 1007.4
20260506214100 68 90 0.0 2.6 0.00 0.25 0.25 77 1007.4
20260506213601 68 136 0.9 3.5 0.00 0.25 0.25 77 1007.5
20260506213058 68 0 0.9 6.1 0.00 0.25 0.25 78 1007.5
20260506212559 68 138 2.6 6.1 0.00 0.25 0.25 76 1007.4
20260506212100 69 0 1.7 5.2 0.00 0.25 0.25 76 1007.4
20260506211559 69 341 1.7 8.7 0.00 0.25 0.25 75 1007.4
20260506211059 69 321 1.7 8.7 0.00 0.25 0.25 75 1007.4
20260506210559 69 329 1.7 8.7 0.00 0.25 0.25 76 1007.2
20260506210105 68 0 1.7 9.6 0.00 0.25 0.25 77 1007.1
20260506205559 68 175 2.6 9.6 0.00 0.25 0.25 77 1007.2
20260506205059 68 132 1.7 7.8 0.00 0.25 0.25 77 1007.1
20260506204628 68 124 1.7 7.8 0.00 0.25 0.25 78 1007.1
20260506204100 68 335 0.9 6.1 0.00 0.25 0.25 77 1007.3
20260506203558 68 325 1.7 6.1 0.00 0.25 0.25 77 1007.1
20260506203058 68 261 2.6 6.1 0.00 0.25 0.25 76 1007.0
20260506202559 68 344 0.9 7.8 0.00 0.25 0.25 77 1007.2
20260506202100 68 287 1.7 8.7 0.00 0.25 0.25 76 1007.0
20260506201601 68 339 1.7 8.7 0.00 0.25 0.25 77 1007.0
20260506201059 68 254 0.9 7.0 0.00 0.25 0.25 78 1007.0
20260506200600 68 129 1.7 6.1 0.00 0.25 0.25 79 1007.0
20260506200101 68 149 0.9 7.8 0.00 0.25 0.25 80 1007.2
20260506195559 68 138 2.6 8.7 0.00 0.25 0.25 79 1007.0
20260506195059 68 150 1.7 8.7 0.00 0.25 0.25 79 1007.2
20260506194606 67 131 2.6 7.8 0.00 0.25 0.25 79 1007.1
20260506194059 67 354 2.6 8.7 0.00 0.25 0.25 79 1007.2
20260506193558 67 151 2.6 8.7 0.00 0.25 0.25 79 1007.2
20260506193102 67 149 1.7 8.7 0.00 0.25 0.25 80 1007.4
20260506192558 67 137 2.6 7.8 0.00 0.25 0.25 79 1007.3
20260506192059 67 165 3.5 5.2 0.00 0.25 0.25 80 1007.2
20260506191559 67 154 1.7 7.8 0.00 0.25 0.25 80 1007.5
20260506191058 66 143 2.6 9.6 0.00 0.25 0.25 80 1007.4
20260506190600 66 149 1.7 9.6 0.00 0.25 0.25 80 1007.7
20260506190059 66 123 1.7 9.6 0.00 0.25 0.25 80 1007.9
20260506185559 66 29 1.7 8.7 0.00 0.25 0.25 80 1007.7
20260506185059 66 335 0.9 8.7 0.00 0.25 0.25 80 1007.8
20260506184603 66 356 1.7 6.1 0.00 0.25 0.25 80 1007.8
20260506184059 66 27 1.7 8.7 0.00 0.25 0.25 80 1007.9
20260506183559 66 129 1.7 8.7 0.00 0.25 0.25 80 1007.9
20260506183106 66 106 2.6 8.7 0.00 0.25 0.25 79 1007.7
20260506182558 66 118 1.7 7.8 0.00 0.25 0.25 81 1007.6
20260506182058 66 308 2.6 7.8 0.00 0.25 0.25 80 1007.7
20260506181605 66 225 0.9 8.7 0.00 0.25 0.25 79 1007.9
20260506181100 65 327 1.7 8.7 0.00 0.25 0.25 82 1007.9
20260506180600 65 129 3.5 8.7 0.00 0.25 0.25 81 1007.9
20260506180058 65 158 0.9 9.6 0.00 0.25 0.25 82 1007.9
20260506175559 65 46 1.7 9.6 0.00 0.25 0.25 80 1008.0
20260506175104 65 130 1.7 9.6 0.00 0.25 0.25 81 1008.1
20260506174557 65 134 2.6 11.3 0.00 0.25 0.25 81 1008.1
20260506174059 65 157 1.7 13.0 0.00 0.25 0.25 84 1008.2
20260506173559 65 321 3.5 13.0 0.00 0.25 0.25 81 1008.0
20260506173100 64 321 3.5 11.3 0.00 0.25 0.25 83 1008.2
20260506172557 64 9 3.5 11.3 0.00 0.25 0.25 83 1008.1
20260506172058 64 137 2.6 10.4 0.00 0.25 0.25 84 1008.2
20260506171603 64 148 2.6 7.8 0.00 0.25 0.25 84 1008.1
20260506171058 63 136 1.7 7.8 0.00 0.25 0.25 85 1008.2
20260506170600 63 0 2.6 10.4 0.00 0.25 0.25 85 1008.2
20260506165559 63 144 1.7 8.7 0.00 0.25 0.25 87 1008.5
20260506165057 63 323 1.7 8.7 0.00 0.25 0.25 87 1008.6
20260506164603 63 320 2.6 9.6 0.00 0.25 0.25 86 1008.6
20260506164100 63 127 3.5 9.6 0.00 0.25 0.25 88 1008.5
20260506163600 63 131 3.5 8.7 0.00 0.25 0.25 88 1008.6
20260506163106 63 143 2.6 8.7 0.00 0.25 0.25 90 1008.4
20260506162558 63 153 2.6 8.7 0.01 0.25 0.25 90 1008.4
20260506162100 62 17 2.6 6.1 0.01 0.25 0.25 90 1008.5
20260506161607 62 144 0.9 5.2 0.01 0.25 0.25 90 1008.7
20260506161101 62 135 1.7 5.2 0.01 0.25 0.25 90 1008.8
20260506160600 62 141 1.7 5.2 0.01 0.25 0.25 91 1008.7
20260506160100 62 133 1.7 6.1 0.02 0.25 0.25 91 1008.7
20260506155559 62 325 0.9 7.8 0.03 0.25 0.25 91 1008.7
20260506155059 61 152 2.6 8.7 0.03 0.25 0.25 91 1008.8
20260506154613 61 145 2.6 8.7 0.04 0.25 0.25 91 1009.0
20260506154100 61 144 1.7 8.7 0.04 0.25 0.25 91 1008.9
20260506153559 61 133 2.6 6.1 0.06 0.25 0.25 91 1008.8
20260506153059 61 121 1.7 4.3 0.07 0.25 0.25 91 1009.1
20260506152557 61 159 0.9 4.3 0.06 0.24 0.24 92 1009.0
20260506152100 61 139 1.7 4.3 0.06 0.24 0.24 92 1008.9
20260506151558 61 133 1.7 3.5 0.07 0.24 0.24 92 1008.8
20260506151100 61 141 0.9 2.6 0.07 0.24 0.24 92 1009.1
20260506150600 60 139 1.7 3.5 0.07 0.24 0.24 92 1009.2
20260506150100 60 138 0.9 5.2 0.08 0.23 0.23 91 1009.3
20260506145601 60 125 0.9 5.2 0.07 0.22 0.22 91 1009.4
20260506145100 60 142 0.0 7.8 0.09 0.22 0.22 91 1009.6
20260506144604 60 321 0.9 7.8 0.10 0.21 0.21 91 1009.7
20260506144059 60 321 1.7 7.8 0.13 0.21 0.21 91 1009.6
20260506143600 60 326 0.9 3.5 0.12 0.19 0.19 91 1009.6
20260506143057 60 152 0.9 2.6 0.12 0.18 0.18 91 1009.6
20260506142600 60 152 0.0 2.6 0.12 0.18 0.18 91 1009.6
20260506142100 60 0 0.0 3.5 0.12 0.18 0.18 91 1009.7
20260506141605 60 0 0.0 3.5 0.13 0.17 0.17 91 1009.6
20260506141059 60 152 0.9 3.5 0.14 0.17 0.17 90 1009.5
20260506140602 60 341 0.9 2.6 0.15 0.17 0.17 91 1009.4
20260506140124 60 128 0.0 2.6 0.13 0.15 0.15 90 1009.5
20260506135602 60 0 0.0 3.5 0.13 0.15 0.15 91 1009.5
20260506135100 60 0 0.9 3.5 0.11 0.13 0.13 90 1009.4
20260506134600 60 58 0.0 1.7 0.09 0.11 0.11 90 1009.7
20260506134100 60 58 0.0 2.6 0.06 0.08 0.08 89 1009.7
20260506133600 61 58 0.9 2.6 0.05 0.07 0.07 89 1009.8
20260506133104 61 57 0.9 2.6 0.04 0.06 0.06 89 1009.8
20260506132559 61 52 0.0 2.6 0.04 0.06 0.06 88 1009.9
20260506132100 61 44 0.9 2.6 0.04 0.06 0.06 88 1010.0
20260506131558 61 2 0.0 2.6 0.03 0.04 0.04 87 1010.0
20260506131059 61 346 0.0 2.6 0.02 0.03 0.03 85 1009.9